COSMOS 2251 DEB, 35979

Orbit data source: Space-Track

COSMOS 2251 DEB, 35979 is space debris in LEO originally from a launch on Wed, 16 Jun 1993 UTC launched from the Plesetsk Missile And Space Complex (PKMTR). The debris from Iridium 33, an American commercial communications satellite, has been tracked extensively since its accidental collision with the defunct Russian satellite Cosmos 2251 in 2009. This event, occurring at high speed in low Earth orbit (LEO), generated thousands of pieces of space debris, significantly increasing the risk of further collisions. The Iridium 33 debris cloud has impacted space traffic management and orbital debris mitigation strategies, making it a subject of ongoing study in space situational awareness.

Loading next visibility...
Identifier
35979, 1993-036AVV
Orbit
LEO
Country
Flag of CISCIS
Related business
Manufacturer
Unknown
Mission
Spacecraft
Bus & Motor
Unknown
Mass
Unknown
Launch date (UTC)
1993-06-16 (33 years ago)
Launch vehicle
Unknown
Launch site
Plesetsk Missile And Space Complex (PKMTR)
Object type
Payload
Rocket body
Debris
Shape & HBR
Unknown shape, 0.1 m
Radar Cross Section
Small (<0.1 m²)

Expand to show TLE details & history
Last TLE update: 1 day ago

TLE from 1 day ago
0 COSMOS 2251 DEB
1 35979U 93036AVV 26122.80815037  .00004997  00000-0  70451-3 0  9998
2 35979  74.0107 321.9945 0058024  60.9437 313.9392 14.76351385907149
Epoch: 2026-05-02T19:23Z
TLE epoch observation values (Epoch: 2026-05-02T19:23:44.191Z)
Latitude
13.807°
Longitude
174.35568°
Altitude
614.639 km
Speed
7.568 km/s
True Right ascension
21h 44m 02s
True Declination
13° 43' 33"
Sunlit
Object was in daylight at epoch
Visualization orbit readout
Latitude
Unknown
Longitude
Unknown
Altitude
Unknown
Speed
Unknown
Apparent Right ascension
Unknown
Apparent Declination
Unknown
Sunlit
N/A
Visualization observer readout
Local Sidereal Time
06:32:03
Azimuth
Unknown
Elevation
Unknown
Doppler factor
Unknown
Orbital elements
Apogee altitude
679.159 km
Perigee altitude
597.733 km
Semi-major axis
7,016.583 km
Eccentricity
0.0058
Inclination
74.0107°
RAAN
321.9945°
Arg. of periapsis
60.9437°
True anomaly
313.458°
Mean anomaly
313.9392°
Eccentric anomaly
313.69884°
Mean motion
3.69279 °/min
Orbital period
97.49 mins
BSTAR
0.00070451

Documentation

Showing up to 5 results
|